(220048) = 2002 RC84

Discovered at Socorro on 2002-09-05 by LINEAR.

Orbit

Orbit type: Main Belt

Note: WebGL enabled browser required.

epoch2023-09-13.0
epoch JD2460200.5
perihelion date2020-03-23.19560
perihelion JD2458931.69560
argument of perihelion (°)162.19621
ascending node (°)187.79959
inclination (°)6.72278
eccentricity0.1380771
perihelion distance (AU)1.9931334
Tisserand w.r.t. Jupiter3.6
ΔV w.r.t. Earth (km/sec)9.0
semimajor axis (AU)2.3124265
mean anomaly (°)355.62855
mean daily motion (°/day)0.28028640
aphelion distance (AU)2.632
period (years)3.52
P-vector [x]0.98450973
P-vector [y]-0.17171219
P-vector [z]-0.03543331
Q-vector [x]0.17460872
Q-vector [y]0.94191694
Q-vector [z]0.28688721
absolute magnitude16.72
phase slope0.15
uncertainty0
referenceMPEC 2024-B136
observations used734
oppositions16
arc length (days)10336
first opposition used1995
last opposition used2023
residual rms (arc-secs)0.65
perturbers coarse indicatorM-v
perturbers precise indicator003Ek
first observation date used1995-08-20.0
last observation date used2023-12-07.0
computer nameMPCLINUX
JD of orbit computation2456670.845679
perihelion JD uncertainty (days)5.0087E-05
argument of perihelion uncertainty (°)2.7650E-05
ascending node uncertainty (°)2.4063E-05
inclination uncertainty (°)7.3462E-06
eccentricity uncertainty 7.2767E-08
perihelion distance uncertainty (AU)1.6973E-07
Minimum Orbit Intersection Distances (in AU)
for orbit epoch: 2460200.5, reference: E2024-BD6
Mercury1.61514
Venus1.27095
Earth0.98796
Mars0.60609
Jupiter2.78644
Saturn6.6394
Uranus15.82
Neptune27.7169

Observations

746 total observations over interval: 1995 08 20.42918 – 2023 12 07.100019
These data are available for download (format description).

Date (UT) J2000 RA J2000 Dec Magn Location Ref
1995 08 20.42918 00 59 28.34 +09 15 42.3 19.7 V 691 – Steward Observatory, Kitt Peak-Spacewatch MPS 149452
1995 08 20.45057 00 59 28.58 +09 15 40.0 19.4 V 691 – Steward Observatory, Kitt Peak-Spacewatch MPS 149452
1995 08 20.47170 00 59 28.82 +09 15 37.0 19.7 V 691 – Steward Observatory, Kitt Peak-Spacewatch MPS 149452
2001 03 19.35985 13 40 56.66 -08 52 11.2 20.8 V 691 – Steward Observatory, Kitt Peak-Spacewatch MPS 149452
2001 03 19.38123 13 40 55.82 -08 52 02.8 20.8 V 691 – Steward Observatory, Kitt Peak-Spacewatch MPS 149452
2001 03 19.40295 13 40 54.99 -08 51 54.5 21.1 V 691 – Steward Observatory, Kitt Peak-Spacewatch MPS 149452
2002 09 05.27941 00 27 43.52 +05 58 18.4 18.6   704 – Lincoln Laboratory ETS, New Mexico MPS 61704
2002 09 05.29344 00 27 43.06 +05 58 12.3 19.4   704 – Lincoln Laboratory ETS, New Mexico MPS 61704
2002 09 05.30748 00 27 42.64 +05 58 05.9 19.3   704 – Lincoln Laboratory ETS, New Mexico MPS 61704
2002 09 05.32144 00 27 42.17 +05 57 59.4 19.5   704 – Lincoln Laboratory ETS, New Mexico MPS 61704
2002 09 05.33546 00 27 41.74 +05 57 52.9 19.2   704 – Lincoln Laboratory ETS, New Mexico MPS 61704
2002 09 07.27015 00 26 43.59 +05 42 37.5 18.9   704 – Lincoln Laboratory ETS, New Mexico MPS 61704
2002 09 07.29816 00 26 42.66 +05 42 23.9 19.3   704 – Lincoln Laboratory ETS, New Mexico MPS 61704
2002 09 07.31218 00 26 42.17 +05 42 17.3 18.9   704 – Lincoln Laboratory ETS, New Mexico MPS 61704
2002 09 07.32632 00 26 41.65 +05 42 10.7 19.5   704 – Lincoln Laboratory ETS, New Mexico MPS 61704
2002 09 14.38735 00 22 25.83 +04 39 27.5 19.2 V 291 – LPL/Spacewatch II MPS 61704
2002 09 14.41084 00 22 24.83 +04 39 14.0 19.2 V 291 – LPL/Spacewatch II MPS 61704
2002 09 14.43401 00 22 23.83 +04 39 00.5 18.9 V 291 – LPL/Spacewatch II MPS 61704
2002 09 14.44131 00 22 23.56 +04 38 56.9 18.5   644 – Palomar Mountain/NEAT MPS 61704
2002 09 14.45167 00 22 23.12 +04 38 51.1 18.4   644 – Palomar Mountain/NEAT MPS 61704
2002 09 14.46339 00 22 22.62 +04 38 44.3 18.6   644 – Palomar Mountain/NEAT MPS 61704
2002 09 27.32439 00 12 53.40 +02 26 27.4 17.9 R 699 – Lowell Observatory-LONEOS MPS 63490
2002 09 27.33492 00 12 52.91 +02 26 20.5   699 – Lowell Observatory-LONEOS MPS 63490
2002 09 27.34545 00 12 52.37 +02 26 13.9   699 – Lowell Observatory-LONEOS MPS 63490
2002 09 27.35599 00 12 51.90 +02 26 08.0   699 – Lowell Observatory-LONEOS MPS 63490
2002 09 30.27364 00 10 38.49 +01 55 04.3 18.5   704 – Lincoln Laboratory ETS, New Mexico MPS 63490
2002 09 30.28780 00 10 37.82 +01 54 54.6 18.5   704 – Lincoln Laboratory ETS, New Mexico MPS 63490
2002 09 30.30214 00 10 37.15 +01 54 46.2 18.7   704 – Lincoln Laboratory ETS, New Mexico MPS 63490
2002 09 30.31641 00 10 36.45 +01 54 36.8 18.8   704 – Lincoln Laboratory ETS, New Mexico MPS 63490
2002 09 30.33065 00 10 35.78 +01 54 28.0 18.9   704 – Lincoln Laboratory ETS, New Mexico MPS 63490
2002 10 02.31704 00 09 06.36 +01 33 28.9 18.4   704 – Lincoln Laboratory ETS, New Mexico MPS 63490
2002 10 02.33266 00 09 05.57 +01 33 18.8 18.7   704 – Lincoln Laboratory ETS, New Mexico MPS 63490
2002 10 02.34820 00 09 04.84 +01 33 09.4 18.9   704 – Lincoln Laboratory ETS, New Mexico MPS 63490
2002 10 02.36374 00 09 04.10 +01 32 59.2 19.0   704 – Lincoln Laboratory ETS, New Mexico MPS 63490
2002 10 03.25094 00 08 25.15 +01 23 41.9 18.9   704 – Lincoln Laboratory ETS, New Mexico MPS 63490
2002 10 03.26633 00 08 24.42 +01 23 32.4 18.9   704 – Lincoln Laboratory ETS, New Mexico MPS 63490
2002 10 03.28177 00 08 23.67 +01 23 22.5 18.7   704 – Lincoln Laboratory ETS, New Mexico MPS 63490
2002 10 03.29735 00 08 22.94 +01 23 13.3 19.0   704 – Lincoln Laboratory ETS, New Mexico MPS 63490
2002 10 03.31273 00 08 22.21 +01 23 03.4 18.7   704 – Lincoln Laboratory ETS, New Mexico MPS 63490
2002 10 04.20599 00 07 43.58 +01 13 45.9 18.1   644 – Palomar Mountain/NEAT MPS 63490
2002 10 04.26940 00 07 40.63 +01 13 06.7 18.1   644 – Palomar Mountain/NEAT MPS 63490
2002 10 04.33173 00 07 37.75 +01 12 28.1 18.0   644 – Palomar Mountain/NEAT MPS 63490
2002 10 05.314290 00 06 55.518 +01 02 21.15 18.78 V 645 – Apache Point-Sloan Digital Sky Survey MPS 149452
2002 10 05.317762 00 06 55.360 +01 02 18.99 19.59   645 – Apache Point-Sloan Digital Sky Survey MPS 149452
2002 10 06.33329 00 06 13.01 +00 51 59.8 20.4   608 – Haleakala-AMOS MPS 63490
2002 10 06.34410 00 06 12.52 +00 51 53.1 20.6   608 – Haleakala-AMOS MPS 63490
2002 10 06.35480 00 06 12.01 +00 51 46.1 20.6   608 – Haleakala-AMOS MPS 63490
2002 10 07.25256 00 05 34.71 +00 42 44.0 18.8   704 – Lincoln Laboratory ETS, New Mexico MPS 63490
2002 10 07.28385 00 05 33.34 +00 42 24.7 18.8   704 – Lincoln Laboratory ETS, New Mexico MPS 63490
2002 10 07.29947 00 05 32.64 +00 42 15.8 18.8   704 – Lincoln Laboratory ETS, New Mexico MPS 63490
2002 10 07.31520 00 05 32.00 +00 42 05.8 18.6   704 – Lincoln Laboratory ETS, New Mexico MPS 63490
2002 10 08.16209 00 04 58.16 +00 33 40.0 18.4 R 699 – Lowell Observatory-LONEOS MPS 63490
2002 10 08.17961 00 04 57.40 +00 33 30.6   699 – Lowell Observatory-LONEOS MPS 63490
2002 10 08.19713 00 04 56.68 +00 33 20.3   699 – Lowell Observatory-LONEOS MPS 63490
2002 10 08.21472 00 04 55.91 +00 33 09.4   699 – Lowell Observatory-LONEOS MPS 63490
2002 10 10.307880 00 03 34.258 +00 12 48.91 18.84 V 645 – Apache Point-Sloan Digital Sky Survey MPS 80114
2002 10 10.311352 00 03 34.119 +00 12 46.91 19.72   645 – Apache Point-Sloan Digital Sky Survey MPS 80114
2002 10 11.24221 00 02 59.77 +00 03 59.2 19.1   704 – Lincoln Laboratory ETS, New Mexico MPS 63490
2002 10 11.25790 00 02 59.19 +00 03 50.3 19.2   704 – Lincoln Laboratory ETS, New Mexico MPS 63490
2002 10 11.27377 00 02 58.54 +00 03 41.6 19.0   704 – Lincoln Laboratory ETS, New Mexico MPS 63490
2002 10 11.28949 00 02 57.92 +00 03 32.5 19.2   704 – Lincoln Laboratory ETS, New Mexico MPS 63490
2002 10 11.30539 00 02 57.27 +00 03 23.5 19.1   704 – Lincoln Laboratory ETS, New Mexico MPS 63490
2002 10 11.319980 00 02 56.694 +00 03 14.53 18.86 V 645 – Apache Point-Sloan Digital Sky Survey MPS 80114
2002 10 11.323452 00 02 56.558 +00 03 12.55 19.69   645 – Apache Point-Sloan Digital Sky Survey MPS 80114
2004 02 18.33060 09 56 35.23 +05 18 49.2 20.4 V 691 – Steward Observatory, Kitt Peak-Spacewatch MPS 149452
2004 02 18.36197 09 56 33.36 +05 19 02.7 20.3 V 691 – Steward Observatory, Kitt Peak-Spacewatch MPS 149452
2004 02 18.38902 09 56 31.77 +05 19 14.6 20.3 V 691 – Steward Observatory, Kitt Peak-Spacewatch MPS 149452
2008 02 27.46680 13 33 47.24 -09 35 37.9 20.9 V 691 – Steward Observatory, Kitt Peak-Spacewatch MPS 239345
2008 02 27.48444 13 33 47.00 -09 35 34.1 20.8 V 691 – Steward Observatory, Kitt Peak-Spacewatch MPS 239345
2008 02 27.50205 13 33 46.80 -09 35 30.5 21.0 V 691 – Steward Observatory, Kitt Peak-Spacewatch MPS 239345
2008 03 06.40740 13 31 29.24 -09 02 18.4 21.0 V 691 – Steward Observatory, Kitt Peak-Spacewatch MPS 240649
2008 03 06.42508 13 31 28.77 -09 02 12.9 20.6 V 691 – Steward Observatory, Kitt Peak-Spacewatch MPS 240649
2008 03 06.44275 13 31 28.30 -09 02 07.7 20.8 V 691 – Steward Observatory, Kitt Peak-Spacewatch MPS 240649
2008 03 10.40085 13 29 42.41 -08 41 17.2 20.4 V 691 – Steward Observatory, Kitt Peak-Spacewatch MPS 242018
2008 03 10.41856 13 29 41.83 -08 41 11.4 20.5 V 691 – Steward Observatory, Kitt Peak-Spacewatch MPS 242018
2008 03 10.43626 13 29 41.30 -08 41 05.7 20.5 V 691 – Steward Observatory, Kitt Peak-Spacewatch MPS 242018
2008 04 05.33457 13 10 24.56 -05 32 11.4 19.9 V G96 – Mt. Lemmon Survey MPS 245690
2008 04 05.34122 13 10 24.20 -05 32 08.1 19.9 V G96 – Mt. Lemmon Survey MPS 245690
2008 04 05.34789 13 10 23.80 -05 32 05.1 20.0 V G96 – Mt. Lemmon Survey MPS 245690
2008 04 05.35450 13 10 23.44 -05 32 01.6 19.9 V G96 – Mt. Lemmon Survey MPS 245690
2008 04 07.30354 13 08 37.77 -05 15 48.0 19.1   704 – Lincoln Laboratory ETS, New Mexico MPS 245690
2008 04 07.33809 13 08 35.76 -05 15 30.8 19.3   704 – Lincoln Laboratory ETS, New Mexico MPS 245690
2008 04 07.34954 13 08 35.18 -05 15 24.7 19.6   704 – Lincoln Laboratory ETS, New Mexico MPS 245690
2008 04 27.23091 12 51 43.81 -02 41 10.8 20.4 V G96 – Mt. Lemmon Survey MPS 248091
